"2010-08-07 00:00:00",49261,5.385,173.6,1.255,0.089,20.69,109.399,23.35,24.13,27.97,0,111.2,13.12,24.18,135.6
"2010-08-07 00:00:30",49262,5.383,174,1.643,0.248,20.83,109.4185,23.4,24.16,27.82,0,111.2,13.12,24.23,136.0
"2010-08-07 00:01:00",49263,5.421,174.6,0.91,0.093,20.65,109.4292,23.43,24.19,27.82,0,111.2,13.12,24.26,136.6
"2010-08-07 00:01:30",49264,5.414,175.2,1.173,0.126,20.6,109.4318,23.43,24.21,27.74,0,111.2,13.12,24.27,137.2
"2010-08-07 00:02:00",49265,5.338,175.3,1.261,0.148,20.63,109.4391,23.45,24.24,27.66,0,111.2,13.12,24.29,137.3
"2010-08-07 00:02:30",49266,4.92,173.7,1.371,0.155,20.67,109.4489,23.48,24.27,27.57,0,111.2,13.12,24.31,135.7
"2010-08-07 00:03:00",49267,4.887,172,1.063,0.069,20.76,109.4613,23.51,24.28,27.57,0,111.2,13.12,24.34,134.0
"2010-08-07 00:03:30",49268,4.96,173.9,1.256,0.211,20.83,109.4642,23.52,24.29,27.52,0,111.2,13.12,24.35,135.9
"2010-08-07 00:04:00",49269,4.703,174.9,0.804,0.122,20.78,109.4667,23.52,24.32,27.42,0,111.2,13.12,24.36,136.9
"2010-08-07 00:04:30",49270,4.369,174.7,0.759,0.097,20.77,109.4745,23.54,24.34,27.39,0,111.2,13.11,24.38,136.7
"2010-08-07 00:05:00",49271,4.437,176.2,1.488,0.171,20.92,109.4942,23.6,24.36,27.34,0,111.2,13.12,24.43,138.2
"2010-08-07 00:05:30",49272,4.545,178.6,1.71,0.086,21.03,109.4981,23.61,24.38,27.17,0,111.2,13.11,24.44,140.6
"2010-08-07 00:06:00",49273,4.486,178.6,1.05,0.108,21.08,109.4987,23.61,24.42,27.2,0,111.2,13.1,24.44,140.6
"2010-08-07 00:06:30",49274,4.522,179.3,0.981,0.082,21.08,109.5023,23.62,24.42,26.99,0,111.2,13.1,24.45,141.3
"2010-08-07 00:07:00",49275,4.594,181.4,0.872,0.099,21.08,109.4981,23.61,24.42,27.04,0,111.2,13.1,24.44,143.4
"2010-08-07 00:07:30",49276,4.334,180.4,0.886,0.127,21.2,109.4981,23.61,24.42,26.96,0,111.2,13.1,24.44,142.4
"2010-08-07 00:08:00",49277,4.254,180.6,1.054,0.094,21.35,109.4981,23.61,24.43,26.92,0,111.2,13.1,24.44,142.6
"2010-08-07 00:08:30",49278,4.172,180.8,1.395,0.108,21.3,109.5049,23.62,24.44,26.94,0,111.2,13.11,24.46,142.8
"2010-08-07 00:09:00",49279,4.27,180,1.028,0.069,21.27,109.5209,23.66,24.47,26.84,0,111.2,13.11,24.50,142.0
"2010-08-07 00:09:30",49280,4.538,181,1.257,0.163,20.99,109.5301,23.69,24.48,27.22,0,111.2,13.11,24.52,143.0
"2010-08-07 00:10:00",49281,4.32,180.7,1.223,0.146,21.04,109.5228,23.67,24.48,27.06,0,111.2,13.11,24.50,142.7
"2010-08-07 00:10:30",49282,4.385,179.5,0.918,0.094,21.02,109.5318,23.69,24.49,26.83,0,111.2,13.11,24.53,141.5
"2010-08-07 00:11:00",49283,4.463,179.6,0.883,0.092,20.97,109.5391,23.71,24.52,26.69,0,111.2,13.11,24.55,141.6
"2010-08-07 00:11:30",49284,4.276,181,1.366,0.087,21,109.563,23.77,24.57,26.68,0,111.2,13.11,24.61,143.0
"2010-08-07 00:12:00",49285,4.55,182.7,1.083,0.24,20.87,109.5655,23.78,24.59,26.87,0,111.2,13.12,24.61,144.7
"2010-08-07 00:12:30",49286,4.323,184.3,1.589,0.142,20.87,109.5655,23.78,24.58,26.91,0,111.2,13.12,24.61,146.3
"2010-08-07 00:13:00",49287,4.022,185.4,2.609,0.086,20.94,109.5664,23.78,24.61,26.74,0,111.2,13.12,24.62,147.4
"2010-08-07 00:13:30",49288,4.195,191.3,0.906,0.151,20.83,109.5734,23.8,24.63,26.89,0,111.2,13.12,24.63,153.3
"2010-08-07 00:14:00",49289,4.325,190.5,0.847,0.094,20.78,109.568,23.78,24.64,27.16,0,111.2,13.12,24.62,152.5
"2010-08-07 00:14:30",49290,4.034,189.4,1.456,0.158,20.68,109.5644,23.78,24.63,27.37,0,111.2,13.11,24.61,151.4
"2010-08-07 00:15:00",49291,3.916,191,1.424,0.158,20.81,109.5613,23.77,24.61,26.88,0,111.2,13.12,24.60,153.0
"2010-08-07 00:15:30",49292,3.853,193.9,2.356,0.136,20.83,109.5652,23.78,24.61,26.77,0,111.2,13.12,24.61,155.9
"2010-08-07 00:16:00",49293,3.956,191.5,2.364,0.225,20.88,109.5661,23.78,24.62,26.7,0,111.2,13.12,24.61,153.5
"2010-08-07 00:16:30",49294,3.998,191,1.479,0.334,20.85,109.5742,23.8,24.64,26.68,0,111.2,13.12,24.64,153.0
"2010-08-07 00:17:00",49295,4.262,192.9,1.335,0.131,20.79,109.5764,23.81,24.67,26.65,0,111.2,13.12,24.64,154.9
"2010-08-07 00:17:30",49296,4.27,194.3,1.079,0.103,20.77,109.5779,23.81,24.65,26.73,0,111.2,13.12,24.65,156.3
"2010-08-07 00:18:00",49297,4.313,192.9,1.88,0.22,20.85,109.5781,23.81,24.68,26.7,0,111.2,13.12,24.65,154.9
"2010-08-07 00:18:30",49298,4.411,192.9,1.758,0.131,20.85,109.5857,23.83,24.67,26.63,0,111.2,13.12,24.67,154.9
"2010-08-07 00:19:00",49299,4.639,193.9,1.07,0.145,20.88,109.5969,23.86,24.69,26.57,0,111.2,13.12,24.69,155.9
"2010-08-07 00:19:30",49300,4.3,193.2,1.022,0.095,20.93,109.5992,23.86,24.7,26.52,0,111.2,13.11,24.70,155.2
"2010-08-07 00:20:00",49301,4.169,194.3,1.462,0.146,20.98,109.6023,23.87,24.71,26.51,0,111.2,13.12,24.71,156.3
"2010-08-07 00:20:30",49302,4.101,196.4,1.262,0.083,20.95,109.6129,23.9,24.74,26.48,0,111.2,13.12,24.74,158.4
"2010-08-07 00:21:00",49303,4.198,201.8,2.152,0.226,20.83,109.632,23.95,24.75,26.49,0,111.2,13.12,24.78,163.8
"2010-08-07 00:21:30",49304,3.938,203.3,2.117,0.158,20.86,109.6329,23.95,24.77,26.48,0,111.2,13.12,24.79,165.3
"2010-08-07 00:22:00",49305,4.234,200.5,1.676,0.255,20.86,109.6329,23.95,24.78,26.49,0,111.2,13.12,24.79,162.5
"2010-08-07 00:22:30",49306,4.2,200.6,0.994,0.221,20.84,109.6329,23.95,24.78,26.46,0,111.2,13.11,24.79,162.6
"2010-08-07 00:23:00",49307,3.714,201.4,1.574,0.091,20.96,109.6329,23.95,24.78,26.51,0,111.2,13.11,24.79,163.4
"2010-08-07 00:23:30",49308,3.546,199,1.349,0.097,20.99,109.639,23.97,24.81,26.53,0,111.2,13.11,24.80,161.0
"2010-08-07 00:24:00",49309,3.467,201.6,1.697,0.232,20.95,109.6559,24.01,24.82,26.53,0,111.2,13.11,24.85,163.6
"2010-08-07 00:24:30",49310,4.149,203.6,1.098,0.118,20.98,109.6665,24.04,24.84,26.52,0,111.2,13.11,24.87,165.6
"2010-08-07 00:25:00",49311,3.946,201.5,3.076,0.104,20.92,109.6665,24.04,24.86,26.55,0,111.2,13.11,24.87,163.5
"2010-08-07 00:25:30",49312,3.554,202.4,3.514,0.232,21.04,109.6665,24.04,24.87,26.7,0,111.2,13.11,24.87,164.4
"2010-08-07 00:26:00",49313,3.633,205.2,1.069,0.217,21,109.6741,24.06,24.88,26.72,0,111.2,13.11,24.89,167.2
"2010-08-07 00:26:30",49314,3.674,207.5,1.659,0.097,21.05,109.6932,24.11,24.91,26.71,0,111.2,13.11,24.94,169.5
"2010-08-07 00:27:00",49315,3.507,211.6,2.126,0.203,21.08,109.7002,24.12,24.94,26.8,0,111.2,13.11,24.96,173.6
"2010-08-07 00:27:30",49316,3.071,212.4,2.604,0.113,21.06,109.7016,24.13,24.94,26.87,0,111.2,13.11,24.96,174.4
"2010-08-07 00:28:00",49317,3.617,208.3,4.88,0.286,20.79,109.7011,24.13,24.95,27.19,0,111.2,13.11,24.96,170.3
"2010-08-07 00:28:30",49318,3.898,206.9,2.768,0.227,20.91,109.6929,24.11,24.94,26.54,0,111.2,13.11,24.94,168.9
"2010-08-07 00:29:00",49319,3.556,208.4,3.378,0.088,20.96,109.6795,24.07,24.93,26.56,0,111.2,13.11,24.91,170.4
"2010-08-07 00:29:30",49320,3.15,210.1,1.279,0.145,20.98,109.6767,24.06,24.95,26.61,0,111.2,13.11,24.90,172.1
"2010-08-07 00:30:00",49321,3.131,211.9,2.147,0.049,21.05,109.6845,24.08,24.94,26.88,0,111.2,13.11,24.92,173.9
"2010-08-07 00:30:30",49322,3.225,218.3,2.918,0.126,21.07,109.7,24.12,24.94,26.98,0,111.2,13.11,24.96,180.3
"2010-08-07 00:31:00",49323,3.23,219.6,3.951,0.139,21.06,109.7002,24.12,24.95,26.95,0,111.2,13.11,24.96,181.6
"2010-08-07 00:31:30",49324,3.208,221.6,2.679,0.12,21.08,109.7011,24.13,24.98,27.09,0,111.2,13.11,24.96,183.6
"2010-08-07 00:32:00",49325,3.076,221.6,1.797,0.087,21.07,109.7092,24.15,24.98,27.12,0,111.2,13.11,24.98,183.6
"2010-08-07 00:32:30",49326,3.424,220.7,1.762,0.152,21.03,109.716,24.16,24.97,26.88,0,111.2,13.11,25.00,182.7
"2010-08-07 00:33:00",49327,4.163,218.9,2.008,0.165,21,109.7235,24.18,25,26.51,0,111.2,13.11,25.02,180.9
"2010-08-07 00:33:30",49328,4.048,220.1,2.682,0.217,21.06,109.7283,24.2,25.01,26.42,0,111.2,13.11,25.03,182.1
"2010-08-07 00:34:00",49329,3.687,220.1,2.454,0.163,21.09,109.7336,24.21,25.01,26.4,0,111.2,13.11,25.05,182.1
"2010-08-07 00:34:30",49330,3.573,219.6,3.653,0.13,21.07,109.7321,24.21,25.01,26.47,0,111.2,13.11,25.04,181.6
"2010-08-07 00:35:00",49331,3.473,221.3,3.816,0.087,21.13,109.7324,24.21,25.02,26.53,0,111.2,13.11,25.04,183.3
"2010-08-07 00:35:30",49332,3.375,230.5,2.13,0.195,21.14,109.7318,24.21,25.02,26.72,0,111.2,13.11,25.04,192.5
"2010-08-07 00:36:00",49333,3.503,225.4,2.477,0.1,21.11,109.7299,24.2,25.01,26.64,0,111.2,13.11,25.04,187.4
"2010-08-07 00:36:30",49334,3.71,226.3,0.72,0.089,21.1,109.7287,24.2,25.03,26.53,0,111.2,13.11,25.03,188.3
"2010-08-07 00:37:00",49335,3.862,227.4,5.031,0.197,21.11,109.7287,24.2,25.04,26.45,0,111.2,13.11,25.03,189.4
"2010-08-07 00:37:30",49336,4.171,224.9,2.14,0.301,21.16,109.7271,24.19,25.05,26.31,0,111.2,13.11,25.03,186.9
"2010-08-07 00:38:00",49337,4.073,226.1,1.733,0.189,21.18,109.7256,24.19,25.05,26.46,0,111.2,13.11,25.03,188.1
"2010-08-07 00:38:30",49338,4.255,224.1,2.029,0.276,21.15,109.7261,24.19,25.06,26.37,0,111.2,13.11,25.03,186.1
"2010-08-07 00:39:00",49339,4.632,221.5,1.988,0.315,21.04,109.7247,24.19,25.05,26.17,0,111.2,13.11,25.02,183.5
"2010-08-07 00:39:30",49340,4.82,222.9,3.047,0.149,21.05,109.7247,24.19,25.05,26.23,0,111.2,13.11,25.02,184.9
"2010-08-07 00:40:00",49341,4.746,224.2,2.51,0.377,21.04,109.7238,24.18,25.05,26.39,0,111.2,13.11,25.02,186.2
"2010-08-07 00:40:30",49342,5.725,228.4,2.352,0.312,20.82,109.7055,24.14,25.03,27.21,0,111.2,13.11,24.97,190.4
"2010-08-07 00:41:00",49343,6.036,229.2,2.397,0.281,20.83,109.6765,24.06,24.98,27.94,0,111.2,13.11,24.90,191.2
"2010-08-07 00:41:30",49344,5.651,227.4,2.178,0.114,21,109.6555,24.01,24.95,27.19,0,111.2,13.11,24.85,189.4
"2010-08-07 00:42:00",49345,5.914,228.3,2.275,0.284,20.91,109.6307,23.95,24.91,28.53,0,111.2,13.11,24.78,190.3
"2010-08-07 00:42:30",49346,6.029,227.2,2.475,0.292,21.12,109.6222,23.92,24.89,28.1,0,111.2,13.11,24.76,189.2
"2010-08-07 00:43:00",49347,6.548,227.3,2.52,0.286,21.09,109.612,23.9,24.84,28.37,0,111.2,13.11,24.73,189.3
"2010-08-07 00:43:30",49348,6.272,224.6,1.858,0.214,21.2,109.5983,23.86,24.81,27.96,0,111.2,13.11,24.70,186.6
"2010-08-07 00:44:00",49349,6.235,226.6,1.948,0.384,21.18,109.5978,23.86,24.81,28.04,0,111.2,13.11,24.70,188.6
"2010-08-07 00:44:30",49350,6.696,228,1.271,0.133,21.16,109.596,23.86,24.79,28.19,0,111.2,13.11,24.69,190.0
"2010-08-07 00:45:00",49351,6.446,229.4,1.2,0.103,21.17,109.5906,23.84,24.78,28.36,0,111.2,13.11,24.68,191.4
"2010-08-07 00:45:30",49352,6.148,229.8,0.943,0.114,21.23,109.589,23.84,24.78,28.03,0,111.2,13.11,24.67,191.8
"2010-08-07 00:46:00",49353,6.275,229,1.256,0.274,21.18,109.589,23.84,24.75,28.12,0,111.2,13.1,24.67,191.0
"2010-08-07 00:46:30",49354,6.267,230.7,1.139,0.219,21.11,109.5873,23.83,24.75,29.25,0,111.2,13.1,24.67,192.7
"2010-08-07 00:47:00",49355,6.224,235.4,2.657,0.226,21.07,109.5728,23.8,24.74,29.96,0,111.2,13.1,24.63,197.4
"2010-08-07 00:47:30",49356,6.508,241.3,2.688,0.161,20.98,109.5585,23.76,24.71,31.87,0,111.2,13.1,24.60,203.3
"2010-08-07 00:48:00",49357,6.373,237.5,2.16,0.138,20.97,109.5448,23.73,24.68,32.31,0,111.2,13.1,24.56,199.5
"2010-08-07 00:48:30",49358,5.853,234.8,3.125,0.169,20.96,109.5198,23.66,24.63,32.1,0,111.2,13.1,24.50,196.8
"2010-08-07 00:49:00",49359,6.199,235.6,2.493,0.2,20.96,109.4962,23.6,24.58,30.57,0,111.2,13.1,24.43,197.6
"2010-08-07 00:49:30",49360,6.521,237.5,1.906,0.174,21.01,109.4855,23.57,24.53,28.3,0,111.2,13.1,24.41,199.5
"2010-08-07 00:50:00",49361,6.346,236.1,1.908,0.26,21.05,109.4855,23.57,24.51,28.69,0,111.2,13.11,24.41,198.1
"2010-08-07 00:50:30",49362,6.491,236.4,1.23,0.123,21.07,109.4865,23.58,24.51,27.81,0,111.2,13.11,24.41,198.4
"2010-08-07 00:51:00",49363,6.18,236.7,0.946,0.182,21.15,109.4944,23.6,24.5,27.42,0,111.2,13.11,24.43,198.7
"2010-08-07 00:51:30",49364,6.016,234.1,1.67,0.193,21.29,109.5149,23.65,24.51,27.56,0,111.2,13.11,24.48,196.1
"2010-08-07 00:52:00",49365,5.756,233.5,1.189,0.198,21.43,109.5265,23.68,24.52,27.7,0,111.2,13.11,24.51,195.5
"2010-08-07 00:52:30",49366,6.057,236.4,2.814,0.196,21.27,109.5529,23.75,24.56,27.53,0,111.2,13.11,24.58,198.4
"2010-08-07 00:53:00",49367,6.426,236.2,2.162,0.133,20.92,109.5563,23.75,24.57,28.15,0,111.2,13.11,24.59,198.2
"2010-08-07 00:53:30",49368,6.373,238.8,1.727,0.168,20.94,109.5419,23.72,24.57,29.47,0,111.2,13.11,24.55,200.8
"2010-08-07 00:54:00",49369,6.264,238.6,1.059,0.133,21.14,109.5313,23.69,24.55,27.54,0,111.2,13.11,24.53,200.6
"2010-08-07 00:54:30",49370,5.971,238,1.688,0.157,21.28,109.5436,23.72,24.56,27.43,0,111.2,13.11,24.56,200.0
"2010-08-07 00:55:00",49371,5.862,240.4,1.211,0.186,21.22,109.5563,23.75,24.57,27.32,0,111.2,13.11,24.59,202.4
"2010-08-07 00:55:30",49372,5.597,238.8,1.345,0.104,21.39,109.5614,23.77,24.6,27.43,0,111.2,13.11,24.60,200.8
"2010-08-07 00:56:00",49373,5.521,240.8,1.399,0.14,21.44,109.5829,23.82,24.62,27.48,0,111.2,13.11,24.66,202.8
"2010-08-07 00:56:30",49374,5.618,240.8,0.762,0.14,21.35,109.5936,23.85,24.65,27.32,0,111.2,13.1,24.69,202.8
"2010-08-07 00:57:00",49375,5.287,240.9,1.169,0.211,21.37,109.6111,23.9,24.67,27.32,0,111.2,13.1,24.73,202.9
"2010-08-07 00:57:30",49376,5.405,238.8,1.121,0.294,21.43,109.6243,23.93,24.71,27.36,0,111.2,13.1,24.76,200.8
"2010-08-07 00:58:00",49377,5.508,238,1.233,0.097,21.37,109.6322,23.95,24.75,27.11,0,111.2,13.1,24.79,200.0
"2010-08-07 00:58:30",49378,5.45,241.3,1.325,0.169,21.41,109.6439,23.98,24.76,27.27,0,111.2,13.1,24.82,203.3
"2010-08-07 00:59:00",49379,5.637,239.9,1.236,0.107,21.39,109.6575,24.01,24.77,27.16,0,111.2,13.1,24.85,201.9
"2010-08-07 00:59:30",49380,5.894,240.8,1.079,0.097,21.07,109.6588,24.02,24.81,27.71,0,111.2,13.1,24.85,202.8
"2010-08-07 01:00:00",49381,5.864,244.8,1.433,0.135,21.2,109.6373,23.96,24.79,27.59,0,111.2,13.1,24.80,206.8
"2010-08-07 01:00:30",49382,5.736,246.7,1.777,0.148,20.88,109.626,23.93,24.81,30.31,0,111.2,13.1,24.77,208.7
"2010-08-07 01:01:00",49383,5.811,243.9,2.14,0.216,20.68,109.5846,23.83,24.78,32.86,0,111.2,13.1,24.66,205.9
"2010-08-07 01:01:30",49384,5.544,244.9,1.939,0.176,20.95,109.541,23.72,24.69,30.82,0,111.2,13.1,24.55,206.9
"2010-08-07 01:02:00",49385,5.673,244.9,0.522,0.123,21.28,109.53,23.69,24.63,27.83,0,111.2,13.11,24.52,206.9
"2010-08-07 01:02:30",49386,5.529,245.8,0.863,0.038,21.11,109.5297,23.69,24.61,27.93,0,111.2,13.11,24.52,207.8
"2010-08-07 01:03:00",49387,5.397,246.5,1.312,0.087,21.32,109.5309,23.69,24.61,27.84,0,111.2,13.11,24.52,208.5
"2010-08-07 01:03:30",49388,5.25,243.3,0.906,0.063,21.49,109.5476,23.73,24.6,27.62,0,111.2,13.11,24.57,205.3
"2010-08-07 01:04:00",49389,5.193,243.4,0.979,0.057,21.5,109.5674,23.78,24.63,27.62,0,111.2,13.11,24.62,205.4
"2010-08-07 01:04:30",49390,5.212,240.5,1.329,0.03,21.53,109.5873,23.83,24.64,27.52,0,111.2,13.11,24.67,202.5
"2010-08-07 01:05:00",49391,5.086,243.2,0.994,0.07,21.54,109.6051,23.88,24.69,27.5,0,111.2,13.11,24.72,205.2
"2010-08-07 01:05:30",49392,5.18,245.2,0.892,0.071,21.45,109.6315,23.95,24.72,27.53,0,111.2,13.11,24.78,207.2
"2010-08-07 01:06:00",49393,5.292,245.6,0.558,0.092,21.53,109.636,23.96,24.74,27.53,0,111.2,13.11,24.79,207.6
"2010-08-07 01:06:30",49394,5.209,248.1,2.414,0.065,21.34,109.6483,23.99,24.77,27.54,0,111.2,13.11,24.83,210.1
"2010-08-07 01:07:00",49395,5.585,243.1,1.638,0.216,21.34,109.6441,23.98,24.78,27.49,0,111.2,13.11,24.82,205.1
"2010-08-07 01:07:30",49396,5.671,244.2,0.769,0.064,21.25,109.6421,23.98,24.81,27.24,0,111.2,13.11,24.81,206.2
"2010-08-07 01:08:00",49397,5.706,245.7,1.256,0.106,21.36,109.6405,23.97,24.8,27.05,0,111.2,13.11,24.81,207.7
"2010-08-07 01:08:30",49398,5.625,244,1.834,0.07,21.37,109.639,23.97,24.81,26.89,0,111.2,13.11,24.80,206.0
"2010-08-07 01:09:00",49399,5.463,243.5,1.593,0.083,21.23,109.641,23.97,24.81,27.28,0,111.2,13.11,24.81,205.5
"2010-08-07 01:09:30",49400,5.429,242.5,2.208,0.154,21.25,109.6332,23.95,24.81,27.59,0,111.2,13.11,24.79,204.5
"2010-08-07 01:10:00",49401,5.35,243.3,1.035,0.265,21.45,109.6329,23.95,24.81,27.02,0,111.2,13.11,24.79,205.3
"2010-08-07 01:10:30",49402,5.822,241.1,0.611,0.064,21.3,109.6329,23.95,24.81,26.8,0,111.2,13.11,24.79,203.1
"2010-08-07 01:11:00",49403,5.52,241.3,1.123,0.12,21.33,109.6329,23.95,24.79,27.07,0,111.2,13.11,24.79,203.3
"2010-08-07 01:11:30",49404,5.574,242.1,0.964,0.11,21.06,109.6315,23.95,24.79,28.23,0,111.2,13.11,24.78,204.1
"2010-08-07 01:12:00",49405,5.413,241.9,1.255,0.065,21.08,109.5997,23.87,24.78,30.07,0,111.2,13.11,24.70,203.9
"2010-08-07 01:12:30",49406,5.408,238.8,2.032,0.23,21.08,109.5762,23.81,24.75,30.29,0,111.2,13.11,24.64,200.8
"2010-08-07 01:13:00",49407,5.4,239.3,1.402,0.192,21.2,109.5515,23.74,24.7,30.54,0,111.2,13.11,24.58,201.3
"2010-08-07 01:13:30",49408,5.455,238.7,1.517,0.121,21.27,109.5414,23.72,24.67,27.75,0,111.2,13.11,24.55,200.7
"2010-08-07 01:14:00",49409,5.313,241,0.77,0.135,21.48,109.5557,23.75,24.66,27.37,0,111.2,13.11,24.59,203.0
"2010-08-07 01:14:30",49410,5.435,239.8,0.739,0.098,21.46,109.5658,23.78,24.67,27.35,0,111.2,13.11,24.61,201.8
"2010-08-07 01:15:00",49411,5.466,236.4,0.627,0.041,21.26,109.5675,23.78,24.67,27.46,0,111.2,13.11,24.62,198.4
"2010-08-07 01:15:30",49412,5.318,242,2.898,0.071,20.96,109.5624,23.77,24.66,28.95,0,111.2,13.11,24.61,204.0
"2010-08-07 01:16:00",49413,5.327,242.4,2.18,0.087,20.94,109.5299,23.69,24.63,30.18,0,111.2,13.11,24.52,204.4
"2010-08-07 01:16:30",49414,5.36,237.8,1.199,0.078,21.17,109.5018,23.61,24.59,28.41,0,111.2,13.11,24.45,199.8
"2010-08-07 01:17:00",49415,5.216,236.8,0.857,0.107,21.55,109.5063,23.63,24.55,27.64,0,111.2,13.1,24.46,198.8
"2010-08-07 01:17:30",49416,5.226,234.9,1.139,0.226,21.52,109.5318,23.69,24.58,27.65,0,111.2,13.11,24.53,196.9
"2010-08-07 01:18:00",49417,5.422,231.6,0.998,0.088,21.44,109.5383,23.71,24.58,27.54,0,111.2,13.11,24.54,193.6
"2010-08-07 01:18:30",49418,5.177,236.5,1.86,0.089,21.7,109.5568,23.76,24.62,27.72,0,111.2,13.11,24.59,198.5
"2010-08-07 01:19:00",49419,5.102,236.5,1.083,0.04,21.6,109.5787,23.81,24.65,27.67,0,111.2,13.11,24.65,198.5
"2010-08-07 01:19:30",49420,5.376,238.9,1.307,0.115,21.37,109.5941,23.85,24.67,27.56,0,111.2,13.11,24.69,200.9
"2010-08-07 01:20:00",49421,5.923,236.7,1.451,0.281,21.2,109.5888,23.84,24.68,27.58,0,111.2,13.11,24.67,198.7
"2010-08-07 01:20:30",49422,6.208,235,0.665,0.079,21.14,109.5717,23.79,24.68,27.64,0,111.2,13.11,24.63,197.0
"2010-08-07 01:21:00",49423,6.103,234.2,0.624,0.048,21.1,109.5641,23.77,24.66,27.69,0,111.2,13.11,24.61,196.2
"2010-08-07 01:21:30",49424,6.187,234,0.435,0.034,21.2,109.5416,23.72,24.65,27.69,0,111.2,13.11,24.55,196.0
"2010-08-07 01:22:00",49425,6.064,234.1,0.278,0.06,21.16,109.5321,23.69,24.63,27.8,0,111.2,13.11,24.53,196.1
"2010-08-07 01:22:30",49426,6.002,236.3,1.559,0.062,21.17,109.5313,23.69,24.62,27.87,0,111.2,13.11,24.53,198.3
"2010-08-07 01:23:00",49427,5.932,238.3,0.832,0.057,21.09,109.5181,23.66,24.58,28.02,0,111.2,13.11,24.49,200.3
"2010-08-07 01:23:30",49428,5.611,241.8,1.319,0.124,20.84,109.4914,23.59,24.56,28.88,0,111.2,13.11,24.42,203.8
"2010-08-07 01:24:00",49429,5.649,245.5,0.407,0.094,20.73,109.4507,23.48,24.5,29.56,0,111.2,13.11,24.32,207.5
"2010-08-07 01:24:30",49430,5.829,242.5,1.838,0.306,20.56,109.4036,23.36,24.41,31.29,0,111.2,13.11,24.20,204.5
"2010-08-07 01:25:00",49431,6.136,238.1,1.322,0.101,20.43,109.348,23.22,24.32,34.28,0,111.2,13.11,24.05,200.1
"2010-08-07 01:25:30",49432,6.438,239.9,1.251,0.355,20.56,109.2997,23.1,24.24,32.35,0,111.2,13.11,23.93,201.9
"2010-08-07 01:26:00",49433,6.605,241.2,0.701,0.11,20.58,109.2638,23,24.14,31.13,0,111.2,13.11,23.84,203.2
"2010-08-07 01:26:30",49434,6.456,240.6,0.79,0.096,20.61,109.2368,22.93,24.06,31.06,0,111.2,13.11,23.77,202.6
"2010-08-07 01:27:00",49435,6.141,238.7,0.872,0.084,20.72,109.2152,22.88,23.99,30.77,0,111.2,13.11,23.71,200.7
"2010-08-07 01:27:30",49436,6.035,237,1.226,0.045,20.79,109.1956,22.83,23.93,30.55,0,111.2,13.12,23.66,199.0
"2010-08-07 01:28:00",49437,6.118,238,1.304,0.056,20.8,109.1959,22.83,23.89,30.41,0,111.2,13.12,23.66,200.0
"2010-08-07 01:28:30",49438,5.945,238.7,0.523,0.069,20.9,109.1957,22.83,23.85,30.35,0,111.2,13.12,23.66,200.7
"2010-08-07 01:29:00",49439,5.913,238.3,0.389,0.042,21.04,109.1984,22.84,23.84,30.14,0,111.2,13.12,23.67,200.3
"2010-08-07 01:29:30",49440,5.827,239.2,0.449,0.068,21.02,109.2026,22.85,23.82,30.06,0,111.2,13.11,23.68,201.2
"2010-08-07 01:30:00",49441,5.647,240,0.4,0.04,20.98,109.2104,22.87,23.82,30.05,0,111.2,13.12,23.70,202.0
"2010-08-07 01:30:30",49442,5.707,239.9,0.334,0.011,21.01,109.2196,22.89,23.83,30.08,0,111.2,13.12,23.72,201.9
"2010-08-07 01:31:00",49443,5.69,241.2,0.616,0.046,21,109.2369,22.93,23.82,30.06,0,111.2,13.12,23.77,203.2
"2010-08-07 01:31:30",49444,5.636,241,0.714,0.04,21,109.2453,22.96,23.81,30.23,0,111.2,13.11,23.79,203.0
"2010-08-07 01:32:00",49445,5.783,241.8,0.526,0.094,20.98,109.249,22.97,23.82,30.27,0,111.2,13.11,23.80,203.8
"2010-08-07 01:32:30",49446,5.923,243.9,0.71,0.048,20.98,109.2405,22.94,23.82,30.26,0,111.2,13.11,23.78,205.9
"2010-08-07 01:33:00",49447,6.117,245.3,0.846,0.067,20.92,109.23,22.92,23.81,30.39,0,111.1,13.11,23.75,207.3
"2010-08-07 01:33:30",49448,5.956,246.9,1.3,0.099,20.94,109.2282,22.91,23.81,31.13,0,111.2,13.11,23.74,208.9
"2010-08-07 01:34:00",49449,6.224,248.5,0.585,0.111,20.85,109.222,22.9,23.8,33.82,0,111.1,13.11,23.73,210.5
"2010-08-07 01:34:30",49450,6.179,249.7,1.093,0.103,20.92,109.2072,22.86,23.78,36.75,0,111.1,13.11,23.69,211.7
"2010-08-07 01:35:00",49451,5.62,254.2,1.323,0.184,20.92,109.1847,22.8,23.75,39.87,0,111.1,13.11,23.63,216.2
"2010-08-07 01:35:30",49452,5.661,253.7,0.844,0.11,20.9,109.1563,22.73,23.7,40.22,0,111.1,13.11,23.56,215.7
"2010-08-07 01:36:00",49453,5.716,254,0.79,0.083,21.05,109.1344,22.67,23.65,39.38,0,111.1,13.11,23.50,216.0
"2010-08-07 01:36:30",49454,5.503,251.5,0.656,0.069,21.25,109.1309,22.66,23.64,36.2,0,111.1,13.11,23.49,213.5
"2010-08-07 01:37:00",49455,5.35,251.2,0.47,0.105,21.28,109.1533,22.72,23.62,35.1,0,111.1,13.12,23.55,213.2
"2010-08-07 01:37:30",49456,5.121,251.1,0.507,0.046,21.37,109.1696,22.76,23.64,33.51,0,111.1,13.12,23.59,213.1
"2010-08-07 01:38:00",49457,5.096,250.7,0.449,0.045,21.4,109.1979,22.83,23.67,32.8,0,111.1,13.12,23.67,212.7
"2010-08-07 01:38:30",49458,5.019,250.5,0.044,0.051,21.46,109.229,22.91,23.69,31.66,0,111.1,13.12,23.75,212.5
"2010-08-07 01:39:00",49459,5.085,251.4,0.731,0.132,21.27,109.2579,22.99,23.75,32.42,0,111.1,13.12,23.82,213.4
"2010-08-07 01:39:30",49460,5.116,252.3,0.584,0.078,21.14,109.2655,23.01,23.78,32,0,111.1,13.12,23.84,214.3
"2010-08-07 01:40:00",49461,4.962,253.2,1.014,0.052,21.21,109.2655,23.01,23.81,31.43,0,111.1,13.12,23.84,215.2
"2010-08-07 01:40:30",49462,4.993,253.8,0.988,0.053,21.31,109.2714,23.02,23.82,31.18,0,111.1,13.12,23.86,215.8
"2010-08-07 01:41:00",49463,5.252,251.6,0.523,0.154,21.14,109.2795,23.04,23.85,31.86,0,111.1,13.12,23.88,213.6
"2010-08-07 01:41:30",49464,5.314,252.4,0.421,0.097,21.12,109.2655,23.01,23.84,33.62,0,111.1,13.12,23.84,214.4
"2010-08-07 01:42:00",49465,5.17,254.5,0.883,0.045,21.25,109.2458,22.96,23.82,33.6,0,111.1,13.12,23.79,216.5
"2010-08-07 01:42:30",49466,5.118,255.5,0.878,0.061,21.39,109.2318,22.92,23.81,32.13,0,111.1,13.12,23.75,217.5
"2010-08-07 01:43:00",49467,5.108,256.3,0.775,0.076,21.55,109.2329,22.92,23.8,31.61,0,111.1,13.12,23.76,218.3
"2010-08-07 01:43:30",49468,4.932,256.5,0.978,0.074,21.47,109.2369,22.93,23.81,33.17,0,111.1,13.12,23.77,218.5
"2010-08-07 01:44:00",49469,4.851,256.1,0.794,0.058,21.48,109.2318,22.92,23.8,32.75,0,111.1,13.12,23.75,218.1
"2010-08-07 01:44:30",49470,4.982,254,1.531,0.075,21.43,109.2318,22.92,23.81,32.03,0,111.1,13.12,23.75,216.0
"2010-08-07 01:45:00",49471,4.794,252.7,0.6,0.046,21.37,109.2318,22.92,23.81,31.42,0,111.1,13.12,23.75,214.7
"2010-08-07 01:45:30",49472,4.722,254.1,0.64,0.051,21.54,109.2318,22.92,23.81,32.12,0,111.1,13.13,23.75,216.1
"2010-08-07 01:46:00",49473,4.708,254.2,0.381,0.05,21.51,109.2329,22.92,23.83,31.94,0,111.1,13.12,23.76,216.2
"2010-08-07 01:46:30",49474,4.626,254.3,0.188,0.042,21.54,109.2369,22.93,23.84,31.87,0,111.1,13.13,23.77,216.3
"2010-08-07 01:47:00",49475,4.473,254.6,0.898,0.097,21.64,109.2397,22.94,23.84,32.01,0,111.1,13.13,23.77,216.6
"2010-08-07 01:47:30",49476,4.343,252,0.889,0.052,21.67,109.2555,22.98,23.85,31.17,0,111.1,13.13,23.81,214.0
"2010-08-07 01:48:00",49477,4.262,252.4,0.632,0.041,21.67,109.2722,23.03,23.85,30.98,0,111.1,13.13,23.86,214.4
"2010-08-07 01:48:30",49478,4.26,252.3,0.522,0.055,21.71,109.2922,23.08,23.89,30.82,0,111.1,13.12,23.91,214.3